DW4153 Weather Reports


time (UTC)temp
F
wind
direction
speed
knots
gust
knots
rain 1hr
in
rain 24hr
in
rain mn
in
humidity
%
barometer
mb
20260505095033 49 352 0.0 1.7 0.00 1.18 0.24 25 1010.5
20260505092033 49 51 0.0 1.7 0.04 1.18 0.24 17 1010.4
20260505082036 49 111 0.0 1.7 0.04 1.14 0.23 7 1010.3
20260505075034 49 54 0.9 3.5 0.12 1.14 0.23 5 1010.2
20260505072034 49 113 0.0 1.7 0.24 1.10 0.22 4 1010.1
20260505065032 49 352 0.0 1.7 0.24 1.02 0.20 4 1010.1
20260505055026 48 74 0.0 0.0 0.16 0.79 0.16 6 1010.2
20260505052042 47 283 0.0 0.0 0.28 0.71 0.14 10 1010.2
20260505035043 47 61 0.0 0.0 0.16 0.16 0.03 27 1010.3
20260505025024 48 82 0.0 0.0 0.00 0.00 0.00 38 1010.6
20260505015038 49 56 0.0 0.9 0.00 0.00 0.00 28 1010.5
20260505012039 49 124 0.0 0.9 0.00 0.00 0.00 27 1010.7
20260505005046 49 79 0.0 0.0 0.00 0.00 0.00 20 1011.0
20260505002043 48 75 0.0 0.0 0.00 0.00 0.00 14 1011.1
20260504235028 47 75 0.0 0.0 0.00 0.00 0.00 18 1011.2
20260504232038 47 75 0.0 0.0 0.00 0.00 0.00 21 1011.3
20260504225036 48 75 0.0 0.0 0.00 0.00 0.00 24 1011.5
20260504222040 48 75 0.0 0.0 0.00 0.00 0.00 29 1011.7
20260504215039 49 75 0.0 0.0 0.00 0.00 0.00 33 1011.7
20260504212038 50 75 0.0 0.0 0.00 0.00 0.00 34 1011.7
20260504205035 51 74 0.0 0.0 0.00 0.00 0.00 42 1011.7
20260504202033 53 74 0.0 0.0 0.00 0.00 0.00 57 1011.8
20260504195027 55 74 0.0 0.0 0.00 0.00 0.00 63 1011.5
20260504192044 56 74 0.0 0.9 0.00 0.00 0.00 67 1011.5
20260504185042 58 105 0.0 0.0 0.00 0.00 0.00 71 1011.4
20260504182042 60 281 0.0 0.0 0.00 0.00 0.00 70 1011.2
20260504175038 62 281 0.0 0.0 0.00 0.00 0.00 69 1011.0
20260504172039 63 291 0.0 0.9 0.00 0.00 0.00 63 1011.1